Date,TemperatureHighF,TemperatureAvgF,TemperatureLowF,DewpointHighF,DewpointAvgF,DewpointLowF,HumidityHigh,HumidityAvg,HumidityLow,PressureMaxIn,PressureMinIn,WindSpeedMaxMPH,WindSpeedAvgMPH,GustSpeedMaxMPH,PrecipitationSumIn
2013-2-1,40,34,26,30,17,7,88,52,27,30.32,29.82,20,2,20,0.00
2013-2-2,46,33,18,38,18,10,90,58,31,30.35,29.97,12,1,12,0.00
2013-2-3,51,41,29,38,31,24,95,70,44,29.97,29.78,14,1,14,0.00
2013-2-4,49,36,25,31,26,22,93,69,40,30.09,29.92,9,0,9,0.00
2013-2-5,62,45,32,39,34,28,92,70,39,29.95,29.81,11,1,11,0.00
2013-2-6,64,44,29,40,31,25,97,67,23,30.21,29.90,11,1,11,0.00
2013-2-7,47,39,34,42,36,29,96,89,73,30.26,29.91,7,1,9,0.36
2013-2-8,56,46,40,48,41,30,97,84,59,30.00,29.75,12,2,12,0.51
2013-2-9,54,38,26,31,26,21,94,66,29,30.30,29.99,13,1,13,0.00
2013-2-10,55,38,24,41,28,22,96,71,33,30.43,30.13,9,0,9,0.04
2013-2-11,62,55,43,60,54,41,99,95,90,30.15,29.84,12,1,12,0.10
2013-2-12,61,52,46,54,40,30,96,66,32,30.01,29.82,11,1,11,0.00
2013-2-13,47,46,43,47,44,38,97,94,81,29.88,29.55,12,0,12,0.10
2013-2-14,53,40,29,39,34,28,97,80,50,30.00,29.77,7,0,7,0.00
2013-2-15,63,43,28,42,34,26,98,75,35,30.03,29.85,11,0,11,0.00
2013-2-16,45,37,31,38,33,26,95,86,71,29.90,29.76,9,0,9,0.34
2013-2-17,39,30,22,26,17,11,85,61,32,30.23,29.86,18,2,18,0.02
2013-2-18,54,34,17,29,22,14,95,65,32,30.35,30.19,5,0,9,0.00
2013-2-19,50,40,28,50,37,25,98,91,71,30.19,29.79,11,1,11,0.22
2013-2-20,54,39,27,34,26,19,95,64,26,30.07,29.90,16,1,16,0.00
2013-2-21,56,39,24,32,24,20,91,59,26,30.18,30.05,10,1,10,0.00
2013-2-22,44,37,34,36,34,26,96,90,51,30.28,30.05,4,0,5,0.47
2013-2-23,43,40,36,42,39,35,98,97,96,30.05,29.75,4,0,4,0.73
2013-2-24,63,49,36,46,41,32,98,79,33,29.97,29.73,12,1,12,0.06
2013-2-25,42,37,32,34,28,24,92,69,53,30.16,29.97,14,1,14,0.00
2013-2-26,56,45,35,56,42,27,98,90,65,30.07,29.48,17,1,17,0.88
2013-2-27,61,49,36,44,41,34,97,76,50,29.72,29.55,13,1,13,0.00
2013-2-28,51,41,31,41,32,28,98,75,43,29.79,29.63,16,1,16,0.00